Monroe, WI

11:40 AM CDT on March 23, 2017 (GMT -0500)
Monroe Municipal

Weather History for KEFT - April, 2014

Change the Weather History Date:

Monday, April 7, 2014

  Actual Average Record
Temperature  
Mean Temperature 50 °F -  
Max Temperature 61 °F 0 °F 77 °F (2001)
Min Temperature 41 °F - 19 °F (2007)
Degree Days  
Heating Degree Days 14    
Moisture  
Dew Point 37 °F    
Average Humidity 63    
Maximum Humidity 100    
Minimum Humidity 39    
Precipitation  
Precipitation 0.02 in - - ()
Sea Level Pressure  
Sea Level Pressure 29.75 in    
Wind  
Wind Speed 6 mph (North)    
Max Wind Speed 20 mph    
Max Gust Speed 23 mph    
Visibility 10 miles    
Events Rain    
Averages and records for this station are not official NWS values.
T = Trace of Precipitation, MM = Missing Value Source: NWS Daily Summary

Daily Weather History Graph

Daily Weather History Graph

Search for Another Location

Airport or City:

Trip Planner

Search our weather history database for the weather conditions in past years. The results will help you decide how hot, cold, wet, or windy it might be!

Date:

Astronomy

Apr. 07, 2014 Rise Set
Actual Time 6:30 AM CDT 7:31 PM CDT
Civil Twilight 6:01 AM CDT 8:00 PM CDT
Nautical Twilight 5:27 AM CDT 8:34 PM CDT
Astronomical Twilight 4:51 AM CDT 9:10 PM CDT
Moon 12:22 PM CDT (4/7) 2:12 AM CDT (4/7)
Length of Visible Light 13h 58m
Length of Day
13h 00m
First Quarter, 53% of the Moon is Illuminated
Apr 7
First Quarter
Apr 15
Full
Apr 22
Last Quarter
Apr 29
New
May 6
First Quarter

Hourly Weather History & Observations

Time (CDT) Temp. Windchill Dew Point Humidity Pressure Visibility Wind Dir Wind Speed Gust Speed Precip Events Conditions
12:15 AM 44.1 °F 40.1 °F 32.4 °F 63% 29.91 in 10.0 mi South 6.9 mph - N/A   Overcast
12:35 AM 44.2 °F 40.3 °F 32.4 °F 63% 29.91 in 10.0 mi South 6.9 mph - N/A   Overcast
12:55 AM 44.1 °F 39.5 °F 32.4 °F 63% 29.91 in 10.0 mi South 8.1 mph - N/A   Overcast
1:15 AM 45.5 °F 41.3 °F 32.0 °F 59% 29.90 in 10.0 mi South 8.1 mph - N/A   Overcast
1:35 AM 45.3 °F 41.1 °F 32.0 °F 60% 29.90 in 10.0 mi South 8.1 mph - N/A   Overcast
1:55 AM 44.8 °F 41.0 °F 32.2 °F 61% 29.89 in 10.0 mi South 6.9 mph - N/A   Overcast
2:15 AM 44.2 °F 40.3 °F 32.0 °F 62% 29.88 in 10.0 mi South 6.9 mph - N/A   Overcast
2:35 AM 43.0 °F 39.5 °F 32.2 °F 66% 29.86 in 10.0 mi South 5.8 mph - N/A   Overcast
2:55 AM 43.5 °F 40.1 °F 32.0 °F 64% 29.86 in 10.0 mi South 5.8 mph - N/A   Overcast
3:15 AM 42.8 °F 40.1 °F 32.0 °F 66% 29.85 in 10.0 mi South 4.6 mph - N/A   Overcast
3:35 AM 42.8 °F 40.1 °F 32.0 °F 66% 29.84 in 10.0 mi South 4.6 mph - N/A   Overcast
3:55 AM 42.1 °F 39.2 °F 32.0 °F 67% 29.83 in 10.0 mi SSE 4.6 mph - N/A   Overcast
4:15 AM 42.6 °F 39.0 °F 32.0 °F 66% 29.83 in 10.0 mi South 5.8 mph - N/A   Overcast
4:35 AM 41.5 °F 38.6 °F 32.0 °F 69% 29.82 in 10.0 mi South 4.6 mph - N/A   Overcast
4:55 AM 42.3 °F 40.5 °F 32.0 °F 67% 29.82 in 10.0 mi South 3.5 mph - N/A   Overcast
5:15 AM 42.8 °F - 32.0 °F 66% 29.82 in 10.0 mi Calm Calm - N/A   Overcast
5:35 AM 43.0 °F - 31.6 °F 64% 29.82 in 10.0 mi Calm Calm - N/A   Mostly Cloudy
5:55 AM 41.5 °F - 32.0 °F 69% 29.83 in 10.0 mi Calm Calm - N/A   Scattered Clouds
6:15 AM 41.7 °F - 32.0 °F 68% 29.83 in 10.0 mi Calm Calm - N/A   Overcast
6:40 AM 41.2 °F - 32.0 °F 70% 29.84 in 10.0 mi Calm Calm - N/A   Mostly Cloudy
6:55 AM 41.0 °F 39.0 °F 32.2 °F 71% 29.85 in 10.0 mi ESE 3.5 mph - N/A   Scattered Clouds
7:15 AM 41.0 °F 37.1 °F 32.2 °F 71% 29.85 in 10.0 mi SE 5.8 mph - N/A   Mostly Cloudy
7:35 AM 41.5 °F - 32.7 °F 71% 29.85 in 10.0 mi Calm Calm - N/A   Overcast
7:55 AM 42.1 °F - 33.3 °F 71% 29.84 in 10.0 mi Calm Calm - N/A   Overcast
8:20 AM 43.0 °F - 33.4 °F 69% 29.83 in 10.0 mi Calm Calm - N/A   Overcast
8:35 AM 43.3 °F - 34.3 °F 71% 29.82 in 10.0 mi Calm Calm - N/A   Mostly Cloudy
8:55 AM 45.7 °F - 34.3 °F 65% 29.81 in 10.0 mi Calm Calm - N/A   Scattered Clouds
9:15 AM 47.7 °F - 34.2 °F 60% 29.80 in 10.0 mi North 3.5 mph - N/A   Scattered Clouds
9:35 AM 50.0 °F - 32.4 °F 51% 29.79 in 10.0 mi NNE 3.5 mph - N/A   Mostly Cloudy
9:55 AM 51.8 °F - 33.1 °F 49% 29.79 in 10.0 mi Calm Calm - N/A   Scattered Clouds
10:15 AM 52.9 °F - 32.2 °F 45% 29.79 in 10.0 mi NNW 3.5 mph - N/A   Clear
10:35 AM 53.1 °F - 32.4 °F 45% 29.78 in 7.0 mi NNE 4.6 mph - N/A   Clear
10:55 AM 54.3 °F - 32.2 °F 43% 29.77 in 10.0 mi Calm Calm - N/A   Scattered Clouds
11:15 AM 54.7 °F - 32.4 °F 43% 29.76 in 10.0 mi North 5.8 mph - N/A   Scattered Clouds
11:35 AM 56.1 °F - 33.8 °F 43% 29.75 in 10.0 mi Calm Calm - N/A   Clear
11:55 AM 57.0 °F - 34.3 °F 42% 29.74 in 10.0 mi NE 9.2 mph - N/A   Clear
12:15 PM 56.8 °F - 35.2 °F 44% 29.73 in 10.0 mi NNE 5.8 mph - N/A   Clear
12:35 PM 57.4 °F - 35.8 °F 44% 29.71 in 10.0 mi North 8.1 mph - N/A   Clear
12:55 PM 58.1 °F - 35.1 °F 42% 29.70 in 10.0 mi NNE 11.5 mph - N/A   Clear
1:15 PM 57.6 °F - 35.1 °F 43% 29.69 in 10.0 mi NE 11.5 mph - N/A   Clear
1:35 PM 59.2 °F - 35.6 °F 41% 29.69 in 7.0 mi North 8.1 mph 16.1 mph N/A   Clear
1:55 PM 60.4 °F - 36.5 °F 41% 29.68 in 10.0 mi NNW 6.9 mph - N/A   Clear
2:15 PM 60.8 °F - 35.6 °F 39% 29.67 in 10.0 mi North 8.1 mph - N/A   Clear
2:35 PM 60.4 °F - 36.1 °F 40% 29.66 in 10.0 mi NW 8.1 mph - N/A   Scattered Clouds
2:55 PM 60.3 °F - 36.7 °F 41% 29.66 in 10.0 mi NW 5.8 mph - N/A   Scattered Clouds
3:15 PM 59.7 °F - 36.9 °F 43% 29.66 in 10.0 mi NNW 9.2 mph - N/A   Mostly Cloudy
3:35 PM 59.0 °F - 37.9 °F 46% 29.65 in 10.0 mi North 4.6 mph - N/A   Mostly Cloudy
3:55 PM 59.5 °F - 37.9 °F 45% 29.65 in 10.0 mi North 9.2 mph - N/A   Mostly Cloudy
4:15 PM 59.2 °F - 37.4 °F 44% 29.65 in 10.0 mi NNW 8.1 mph - N/A   Mostly Cloudy
4:35 PM 59.0 °F - 37.4 °F 45% 29.64 in 10.0 mi NNW 8.1 mph - N/A   Mostly Cloudy
4:55 PM 58.5 °F - 39.6 °F 49% 29.64 in 10.0 mi NNW 10.4 mph 17.3 mph N/A   Overcast
5:15 PM 57.9 °F - 39.6 °F 50% 29.65 in 10.0 mi North 8.1 mph - N/A   Overcast
5:35 PM 57.2 °F - 39.4 °F 51% 29.64 in 10.0 mi North 9.2 mph - N/A   Overcast
5:55 PM 56.8 °F - 38.5 °F 50% 29.64 in 10.0 mi NNW 5.8 mph - N/A   Overcast
6:20 PM 56.3 °F - 39.4 °F 53% 29.64 in 10.0 mi NW 8.1 mph - N/A   Overcast
6:35 PM 54.9 °F - 41.0 °F 60% 29.64 in 10.0 mi NNE 19.6 mph 23.0 mph N/A Rain Light Rain
6:55 PM 50.4 °F - 42.3 °F 74% 29.64 in 10.0 mi NNE 6.9 mph - N/A   Overcast
7:15 PM 50.0 °F - 42.3 °F 75% 29.64 in 10.0 mi ENE 4.6 mph - N/A   Overcast
7:35 PM 49.8 °F - 41.9 °F 74% 29.65 in 10.0 mi Calm Calm - N/A   Overcast
7:55 PM 49.8 °F - 46.9 °F 90% 29.65 in 10.0 mi North 3.5 mph - N/A   Overcast
8:15 PM 50.2 °F - 41.0 °F 71% 29.65 in 10.0 mi NW 4.6 mph - N/A   Overcast
8:35 PM 50.0 °F - 41.0 °F 71% 29.66 in 10.0 mi WNW 5.8 mph - N/A   Overcast
8:55 PM 50.0 °F - 41.4 °F 72% 29.67 in 10.0 mi North 10.4 mph 18.4 mph N/A   Overcast
9:15 PM 49.3 °F - 48.9 °F 99% 29.67 in 7.0 mi North 10.4 mph 18.4 mph 0.02 in Rain Rain
9:35 PM 48.7 °F - 48.7 °F 100% 29.67 in 10.0 mi North 6.9 mph - 0.02 in   Overcast
9:55 PM 49.1 °F - 49.1 °F 100% 29.67 in 10.0 mi NNW 9.2 mph - 0.02 in   Overcast
10:15 PM 49.1 °F - 49.1 °F 100% 29.67 in 10.0 mi NNW 8.1 mph - N/A   Overcast
10:35 PM 48.7 °F - 48.7 °F 100% 29.66 in 10.0 mi NNW 6.9 mph - N/A   Overcast
10:55 PM 47.3 °F - 47.3 °F 100% 29.67 in 10.0 mi NW 5.8 mph - N/A   Scattered Clouds
11:15 PM 46.4 °F 41.9 °F 46.4 °F 100% 29.67 in 10.0 mi NW 9.2 mph - N/A   Scattered Clouds
11:35 PM 45.7 °F 42.0 °F 45.5 °F 99% 29.67 in 10.0 mi NW 6.9 mph - N/A   Scattered Clouds
11:55 PM 45.5 °F 40.8 °F 45.3 °F 99% 29.67 in 10.0 mi NW 9.2 mph - N/A   Mostly Cloudy